Tracking 18980 objects as of 18-Feb-2018
HD Live streaming from Space Station
objects crossing your sky now

NOAA 16 DEB

Track NOAA 16 DEB now!
10-day predictions


NORAD ID: 41146
Int'l Code: 2000-055CD
Perigee: 836.0 km
Apogee: 885.1 km
Inclination: 98.9 °
Period: 102.0 minutes
Semi major axis: 7231 km
RCS: Unknown
Launch date: September 21, 2000
Source: United States (US)
Launch site: AIR FORCE WESTERN TEST RANGE (AFWTR)

Note: This is SATELLITE DEBRIS
aabbcc
Your satellite tracking list
Your tracking list is empty




NASA's NSSDC Master Catalog

Two Line Element Set (TLE):
1 41146U 00055CD  18049.00766436  .00000928  00000-0  53073-3 0  9990
2 41146  98.8896 122.9171 0033972 211.3369 148.5779 14.11734654114269
Source of the keplerian elements: AFSPC